{"data":{"norad_id":59933,"intl_designator":"2024-106M","name":"STARLINK-31853","alt_names":[],"object_type":"PAYLOAD","status":"ACTIVE","operator":null,"country":"US","launch_date":"2024-06-01","launch_site_code":"AFETR","launch_vehicle":null,"mission":null,"orbit_class":"UNKNOWN","rcs_meters":null,"size_class":null,"mass_kg":null,"dimensions":null,"purposes":["comms"],"wikipedia_slug":null,"has_3d_model":false,"image_url":null,"decayed_at":null,"tle_current":{"epoch":"2026-09-21T04:50:36.419424Z","epoch_age_seconds":113860,"freshness":"FRESH","line1":"1 59933U 24106M   26264.20181041  .00000381  00000+0  23357-4 0  9994","line2":"2 59933  43.0035 308.3944 0001466 275.7856  84.2828 15.27578089130428","mean_motion":15.27578089,"eccentricity":0.0001466,"inclination_deg":43.0035,"raan_deg":308.3944,"arg_perigee_deg":275.7856,"mean_anomaly_deg":84.2828,"bstar":2.3357e-5,"rev_number":13042,"period_min":94.266866641343,"perigee_km":482.04896754654,"apogee_km":484.06066898765,"semimajor_km":6861.1918182671,"source":"CELESTRAK","updated_at":"2026-09-22T09:00:49.112936Z"}}}